Home   Weather   Molepolole   Past weeks

Flag for Botswana Past Weather in Molepolole, Botswana — Yesterday and Last 2 Weeks

Now
70 °F

Sunny.


Feels Like: 70 °F
Forecast: 73 / 98 °F
Wind: 10 mph from East

Location: Seretse Khama International Airport

Current Time: Dec 3, 2016 at 6:48:03 am

Latest Report: Dec 3, 2016 at 6:00 am


Visibility: 10 mi

Pressure: 30.09 "Hg (26.34 "Hg at 1145m altitude)

Humidity: 60%

Dew Point: 55 °F

Location of MolepololeLocation

Past Weather in Molepolole — Graph

°F

Molepolole Temperature Yesterday

Maximum temperature yesterday: 99 °F (at 3:00 pm)
Minimum temperature yesterday: 68 °F (at 6:00 am)
Average temperature yesterday: 87 °F

High & Low Weather Summary for the Past Weeks

 TemperatureHumidityPressure
High99 °F (Nov 30, 4:00 pm)100% (Nov 20, 6:00 am)30.18 "Hg (Nov 20, 6:00 am)
Low61 °F (Nov 19, 6:00 pm)7% (Nov 18, 1:00 pm)29.83 "Hg (Dec 2, 5:00 pm)
Average78 °F51%30.04 "Hg
* Reported Nov 18 5:00 am — Dec 3 5:00 am, Molepolole, Weather by CustomWeather, © 2016

Note: Actual official high and low records may vary slightly from our data, if they occured in-between our weather recording intervals... More about our weather records

Advertising

Molepolole Weather History for the Previous 24 Hours

Scroll right to see more
 ConditionsComfort  
Time TempWeatherWind HumidityBarometerVisibility
5:00 am
Sat, Dec 3
72 °FClear.12 mph57%30.07 "Hg10 mi
2:00 am77 °FClear.10 mph47%30.01 "Hg10 mi
1:00 am81 °FClear.13 mph39%30.01 "Hg10 mi
12:00 am82 °FClear.12 mph37%30.01 "Hg10 mi
11:00 pm
Fri, Dec 2
84 °FClear.7 mph37%29.98 "Hg10 mi
10:00 pm86 °FPassing clouds.12 mph35%29.95 "HgN/A
9:00 pm88 °FClear.9 mph29%29.92 "Hg10 mi
8:00 pm88 °FClear.6 mph25%29.89 "Hg10 mi
7:00 pm91 °FPassing clouds.6 mph21%29.86 "HgN/A
6:00 pm97 °FPassing clouds.3 mph16%29.83 "HgN/A
5:00 pm99 °FPassing clouds.3 mph14%29.83 "HgN/A
4:00 pm99 °FPassing clouds.5 mph14%29.86 "HgN/A
3:00 pm99 °FPassing clouds.3 mph13%29.89 "HgN/A
2:00 pm97 °FPassing clouds.3 mph18%29.89 "HgN/A
1:00 pm95 °FPassing clouds.7 mph20%29.92 "HgN/A
12:00 pm90 °FPassing clouds.10 mph26%29.95 "HgN/A
11:00 am90 °FPassing clouds.9 mph24%29.95 "HgN/A
10:00 am86 °FPassing clouds.14 mph33%29.98 "HgN/A
9:00 am82 °FSunny.14 mph30%29.98 "Hg10 mi
8:00 am82 °FSunny.10 mph25%29.98 "Hg10 mi
7:00 am79 °FSunny.6 mph30%29.95 "Hg10 mi
6:00 am68 °FSunny.2 mph60%29.92 "Hg10 mi
Weather by CustomWeather, © 2016

See weather overviewHow to use our weather pages